This demonstration page uses our WeatherBlox Daily Observations layout. Learn more.

Left ArrowRight Arrow

Hourly Observations for September 12, 2015

Temp ( °F °C ) Dew Point ( °F °C ) Humidity (%) Winds ( mph kmh ) Pressure ( in mb ) Visibility ( mi km ) Precip ( " mm )
12:52 am 00:52 Partly Cloudy 52 11.1 50 10 93 93 NNW 5 7 30.20 1023 10 16 0.00 0.00
1:52 am 01:52 Mostly Cloudy 51 10.6 50 10 96 96 Calm 30.20 1023 10 16 0.00 0.00
2:52 am 02:52 Mostly Cloudy 50 10 49 9.4 96 96 Calm 30.19 1023 10 16 0.00 0.00
3:52 am 03:52 Mostly Cloudy 49 9.4 48 8.9 97 97 NNW 3 6 30.20 1023 10 16 0.00 0.00
4:52 am 04:52 Mostly Cloudy 48 8.9 48 8.9 100 100 N 5 7 30.20 1023 10 16 0.00 0.00
5:52 am 05:52 Partly Cloudy 47 8.3 46 7.8 97 97 NNW 5 7 30.20 1023 10 16 0.00 0.00
6:52 am 06:52 Partly Cloudy with Mist and Fog 45 7.2 45 7.2 100 100 NNW 5 7 30.21 1023 6 10 0.00 0.00
7:22 am 07:22 Partly Cloudy with Mist and Fog 46 8 45 7 93 93 NNW 5 7 30.24 1024 6 10 0.00 0.00
7:52 am 07:52 Partly Cloudy with Mist and Fog 48 8.9 47 8.3 96 96 NW 5 7 30.21 1023 6 10 0.00 0.00
8:52 am 08:52 Mostly Sunny 53 11.7 50 10 89 89 NNW 3 6 30.21 1023 10 16 0.00 0.00
9:52 am 09:52 Mostly Sunny 58 14.4 50 10 75 75 VRB 3 6 30.21 1023 10 16 0.00 0.00
10:52 am 10:52 Partly Cloudy 62 16.7 51 10.6 67 67 Calm 30.21 1023 10 16 0.00 0.00
11:52 am 11:52 Mostly Sunny 63 17.2 47 8.3 56 56 Calm 30.19 1022 10 16 0.00 0.00
12:52 pm 12:52 Partly Cloudy 67 19.4 47 8.3 49 49 Calm 30.16 1021 10 16 0.00 0.00
1:52 pm 13:52 Mostly Sunny 69 20.6 44 6.7 41 41 VRB 3 6 30.14 1021 10 16 0.00 0.00
2:52 pm 14:52 Mostly Sunny 68 20 45 7.2 44 44 SE 6 9 30.11 1020 10 16 0.00 0.00
3:52 pm 15:52 Partly Cloudy 70 21.1 43 6.1 38 38 Calm 30.09 1019 10 16 0.00 0.00
4:52 pm 16:52 Mostly Cloudy 69 20.6 44 6.7 41 41 WSW 3 6 30.07 1018 10 16 0.00 0.00
5:52 pm 17:52 Mostly Cloudy 70 21.1 45 7.2 41 41 ENE 6 9 30.05 1018 10 16 0.00 0.00
6:52 pm 18:52 Mostly Cloudy 68 20 44 6.7 42 42 ESE 6 9 30.06 1018 10 16 0.00 0.00
7:52 pm 19:52 Mostly Cloudy 63 17.2 48 8.9 58 58 SSE 6 9 30.05 1018 10 16 0.00 0.00
8:52 pm 20:52 Mostly Cloudy 61 16.1 51 10.6 70 70 ESE 5 7 30.07 1018 10 16 0.00 0.00
9:52 pm 21:52 Mostly Cloudy 60 15.6 50 10 70 70 SE 5 7 30.08 1019 10 16 0.00 0.00
10:52 pm 22:52 Mostly Cloudy 59 15 49 9.4 69 69 Calm 30.07 1018 10 16 0.00 0.00
11:52 pm 23:52 Partly Cloudy 58 14.4 49 9.4 72 72 Calm 30.05 1018 10 16 0.00 0.00

Powered by AerisWeather